• In Czech Republic
  • List of Countries
  • For 7 days
  • Water Temperature
  • Satellite Maps
  • Weather Map
  • Weather Widgets
  • user-avatar
    Login

    Hourly Weather Sydney

    Today, 17 August, Thursday

    Time Temperature Precipitation Wind Pressure Humidity
    00:00 +12°C° 0 mm 4 mps 756 mmHg 53%
    01:00 +12°C° 0 mm 3 mps 756 mmHg 54%
    02:00 +11°C° 0 mm 3 mps 756 mmHg 56%
    03:00 +11°C° 0 mm 3 mps 756 mmHg 58%
    04:00 +10°C° 0 mm 3 mps 755 mmHg 60%
    05:00 +10°C° 0 mm 3 mps 755 mmHg 61%
    06:00 +10°C° 0 mm 3 mps 756 mmHg 62%
    07:00 +10°C° 0 mm 3 mps 756 mmHg 63%
    08:00 +13°C° 0 mm 3 mps 756 mmHg 52%
    09:00 +15°C° 0 mm 4 mps 756 mmHg 42%
    10:00 +19°C° 0 mm 4 mps 755 mmHg 33%
    11:00 +21°C° 0 mm 4 mps 755 mmHg 29%
    12:00 +22°C° 0 mm 4 mps 754 mmHg 26%
    13:00 +23°C° 0 mm 5 mps 754 mmHg 22%
    14:00 +23°C° 0 mm 5 mps 754 mmHg 24%
    15:00 +22°C° 0 mm 6 mps 753 mmHg 25%
    16:00 +21°C° 0 mm 7 mps 753 mmHg 29%
    17:00 +18°C° 0 mm 7 mps 754 mmHg 32%
    18:00 +17°C° 0 mm 7 mps 754 mmHg 36%
    19:00 +15°C° 0 mm 6 mps 755 mmHg 40%
    20:00 +15°C° 0 mm 7 mps 755 mmHg 40%
    21:00 +15°C° 0 mm 8 mps 755 mmHg 40%
    22:00 +13°C° 0 mm 8 mps 755 mmHg 40%
    23:00 +13°C° 0 mm 8 mps 755 mmHg 42%

    Tomorrow, 18 August, Friday

    Time Temperature Precipitation Wind Pressure Humidity
    00:00 +13°C° 0 mm 8 mps 755 mmHg 43%
    01:00 +12°C° 0 mm 9 mps 755 mmHg 45%
    02:00 +12°C° 0 mm 9 mps 755 mmHg 47%
    03:00 +11°C° 0 mm 9 mps 755 mmHg 49%
    04:00 +11°C° 0 mm 9 mps 755 mmHg 52%
    05:00 +11°C° 0 mm 9 mps 755 mmHg 51%
    06:00 +9°C° 0 mm 10 mps 755 mmHg 51%
    07:00 +9°C° 0 mm 10 mps 755 mmHg 51%
    08:00 +11°C° 0 mm 11 mps 756 mmHg 46%
    09:00 +12°C° 0 mm 11 mps 756 mmHg 41%
    10:00 +13°C° 0 mm 12 mps 756 mmHg 36%
    11:00 +13°C° 0 mm 12 mps 756 mmHg 34%
    12:00 +14°C° 0 mm 12 mps 756 mmHg 32%
    13:00 +15°C° 0 mm 12 mps 755 mmHg 30%
    14:00 +14°C° 0 mm 12 mps 756 mmHg 31%
    15:00 +14°C° 0 mm 12 mps 756 mmHg 32%
    16:00 +14°C° 0 mm 11 mps 756 mmHg 33%
    17:00 +12°C° 0 mm 11 mps 757 mmHg 36%
    18:00 +11°C° 0 mm 10 mps 757 mmHg 39%
    19:00 +9°C° 0 mm 10 mps 758 mmHg 43%
    20:00 +9°C° 0 mm 10 mps 758 mmHg 45%
    21:00 +9°C° 0 mm 10 mps 759 mmHg 47%
    22:00 +8°C° 0 mm 10 mps 759 mmHg 49%
    23:00 +8°C° 0 mm 10 mps 759 mmHg 51%

    Day after tomorrow, 19 August, Saturday

    Time Temperature Precipitation Wind Pressure Humidity
    00:00 +8°C° 0 mm 9 mps 759 mmHg 52%
    01:00 +7°C° 0 mm 9 mps 760 mmHg 54%
    02:00 +7°C° 0 mm 9 mps 760 mmHg 55%
    03:00 +7°C° 0 mm 9 mps 760 mmHg 55%
    04:00 +7°C° 0 mm 9 mps 760 mmHg 56%
    05:00 +6°C° 0 mm 9 mps 761 mmHg 55%
    06:00 +6°C° 0 mm 9 mps 762 mmHg 55%
    07:00 +6°C° 0 mm 9 mps 762 mmHg 54%
    08:00 +8°C° 0.2 mm 9 mps 763 mmHg 49%
    09:00 +9°C° 0.2 mm 10 mps 763 mmHg 43%
    10:00 +12°C° 0.2 mm 10 mps 763 mmHg 37%
    11:00 +13°C° 0.3 mm 10 mps 763 mmHg 35%
    12:00 +14°C° 0.3 mm 10 mps 763 mmHg 32%
    13:00 +14°C° 0.3 mm 10 mps 763 mmHg 30%
    14:00 +14°C° 0.2 mm 10 mps 763 mmHg 31%
    15:00 +14°C° 0.2 mm 10 mps 763 mmHg 32%
    16:00 +14°C° 0.2 mm 10 mps 764 mmHg 34%
    17:00 +13°C° 0.1 mm 9 mps 764 mmHg 38%
    18:00 +11°C° 0.1 mm 9 mps 765 mmHg 43%
    19:00 +10°C° 0.1 mm 9 mps 766 mmHg 47%
    20:00 +8°C° 0.1 mm 9 mps 766 mmHg 49%
    21:00 +9°C° 0.1 mm 8 mps 766 mmHg 51%
    22:00 +7°C° 0.1 mm 8 mps 767 mmHg 52%
    23:00 +6°C° 0.1 mm 8 mps 767 mmHg 51%

    20 August, Sunday

    Time Temperature Precipitation Wind Pressure Humidity
    00:00 +6°C° 0.1 mm 8 mps 767 mmHg 50%
    01:00 +5°C° 0.1 mm 8 mps 767 mmHg 49%
    02:00 +5°C° 0 mm 8 mps 767 mmHg 51%
    03:00 +4°C° 0 mm 8 mps 767 mmHg 52%
    04:00 +3°C° 0 mm 7 mps 767 mmHg 54%
    05:00 +3°C° 0 mm 7 mps 767 mmHg 55%
    06:00 +3°C° 0 mm 7 mps 767 mmHg 56%
    07:00 +3°C° 0 mm 7 mps 768 mmHg 57%
    08:00 +5°C° 0 mm 6 mps 768 mmHg 51%
    09:00 +9°C° 0 mm 6 mps 768 mmHg 44%
    10:00 +11°C° 0 mm 6 mps 767 mmHg 38%
    11:00 +14°C° 0 mm 6 mps 767 mmHg 35%
    12:00 +15°C° 0 mm 6 mps 766 mmHg 33%
    13:00 +16°C° 0 mm 5 mps 765 mmHg 30%
    14:00 +16°C° 0 mm 5 mps 765 mmHg 32%
    15:00 +16°C° 0 mm 5 mps 765 mmHg 34%
    16:00 +16°C° 0 mm 5 mps 765 mmHg 36%
    17:00 +14°C° 0 mm 5 mps 765 mmHg 46%
    18:00 +12°C° 0 mm 5 mps 766 mmHg 57%
    19:00 +10°C° 0 mm 4 mps 766 mmHg 67%
    20:00 +8°C° 0 mm 4 mps 766 mmHg 70%
    21:00 +9°C° 0 mm 3 mps 766 mmHg 74%
    22:00 +8°C° 0 mm 3 mps 766 mmHg 77%
    23:00 +7°C° 0 mm 2 mps 766 mmHg 79%

    21 August, Monday

    Time Temperature Precipitation Wind Pressure Humidity
    00:00 +7°C° 0 mm 2 mps 766 mmHg 82%
    01:00 +6°C° 0 mm 2 mps 765 mmHg 84%
    02:00 +6°C° 0 mm 2 mps 765 mmHg 84%
    03:00 +6°C° 0 mm 2 mps 765 mmHg 85%
    04:00 +5°C° 0 mm 2 mps 764 mmHg 85%
    05:00 +6°C° 0 mm 2 mps 764 mmHg 83%
    06:00 +6°C° 0 mm 2 mps 764 mmHg 81%
    07:00 +6°C° 0 mm 2 mps 764 mmHg 78%
    08:00 +9°C° 0 mm 2 mps 764 mmHg 69%
    09:00 +11°C° 0 mm 3 mps 763 mmHg 60%
    10:00 +14°C° 0 mm 3 mps 763 mmHg 51%
    11:00 +15°C° 0 mm 4 mps 762 mmHg 42%
    12:00 +18°C° 0 mm 4 mps 762 mmHg 34%
    13:00 +19°C° 0 mm 5 mps 761 mmHg 25%
    14:00 +17°C° 0 mm 5 mps 760 mmHg 28%
    15:00 +16°C° 0 mm 6 mps 760 mmHg 32%
    16:00 +15°C° 0 mm 6 mps 760 mmHg 35%
    17:00 +13°C° 0 mm 6 mps 760 mmHg 41%
    18:00 +12°C° 0 mm 5 mps 761 mmHg 47%
    19:00 +10°C° 0 mm 5 mps 761 mmHg 53%
    20:00 +9°C° 0 mm 5 mps 761 mmHg 55%
    21:00 +9°C° 0 mm 5 mps 761 mmHg 58%
    22:00 +8°C° 0 mm 4 mps 761 mmHg 61%
    23:00 +8°C° 0 mm 4 mps 760 mmHg 58%

    22 August, Tuesday

    Time Temperature Precipitation Wind Pressure Humidity
    00:00 +10°C° 0 mm 4 mps 760 mmHg 55%
    01:00 +10°C° 0 mm 4 mps 759 mmHg 52%
    02:00 +8°C° 0 mm 4 mps 759 mmHg 53%
    03:00 +8°C° 0 mm 4 mps 759 mmHg 54%
    04:00 +7°C° 0 mm 4 mps 759 mmHg 55%
    05:00 +7°C° 0 mm 4 mps 759 mmHg 55%
    06:00 +7°C° 0 mm 4 mps 759 mmHg 54%
    07:00 +7°C° 0 mm 4 mps 760 mmHg 54%
    08:00 +11°C° 0 mm 3 mps 760 mmHg 51%
    09:00 +14°C° 0 mm 3 mps 760 mmHg 47%
    10:00 +18°C° 0 mm 3 mps 760 mmHg 43%
    11:00 +19°C° 0 mm 2 mps 759 mmHg 41%
    12:00 +21°C° 0 mm 2 mps 759 mmHg 39%
    13:00 +23°C° 0 mm 1 mps 759 mmHg 37%
    14:00 +22°C° 0 mm 1 mps 759 mmHg 40%
    15:00 +21°C° 0 mm 1 mps 759 mmHg 44%
    16:00 +19°C° 0 mm 2 mps 760 mmHg 47%
    17:00 +18°C° 0 mm 2 mps 760 mmHg 53%
    18:00 +16°C° 0 mm 2 mps 761 mmHg 58%
    19:00 +14°C° 0 mm 2 mps 762 mmHg 63%
    20:00 +12°C° 0 mm 3 mps 762 mmHg 67%
    21:00 +11°C° 0 mm 4 mps 762 mmHg 70%
    22:00 +9°C° 0 mm 5 mps 763 mmHg 74%
    23:00 +9°C° 0 mm 5 mps 763 mmHg 74%
    Show more